Wind_Speed
56 55 55 54 54 55 55 56 55 54 54 54 55 56 57 56 55 55 55 55 55 55 55 55 56 56 56 56 56 55 54 53 53 52 52 51 51 51
57 56 56 55 54 54 54 55 55 55 55 54 55 56 57 56 56 56 56 56 56 57 56 56 56 57 58 58 58 57 56 56 55 54 54 54 53 53
57 56 56 57 56 55 55 55 56 57 57 55 56 56 56 57 57 57 57 57 57 57 57 58 57 57 58 58 59 59 58 58 57 56 56 55 54 55
57 56 56 56 57 57 56 57 58 59 59 58 57 57 57 57 58 58 57 57 57 57 58 58 58 58 58 58 59 60 60 59 60 59 58 58 57 57
57 56 56 56 56 57 58 59 59 59 59 59 58 58 57 57 58 57 57 57 58 58 59 59 59 58 59 59 60 60 62 62 61 61 60 60 59 59
56 56 57 57 58 58 59 60 61 61 61 61 60 59 58 58 58 58 58 59 59 59 59 59 60 60 59 59 60 61 62 62 62 62 61 60 60 60
57 57 57 58 59 60 60 61 61 62 62 62 61 60 60 59 59 59 60 60 60 60 60 59 60 60 60 60 59 59 60 61 61 62 62 62 61 61
57 58 58 59 60 60 60 60 61 62 62 62 62 61 61 60 60 60 61 61 61 61 61 61 60 60 60 60 60 60 61 61 62 62 62 62 62 62
57 58 58 59 60 61 61 61 61 61 61 62 62 62 62 62 62 62 61 62 62 61 63 62 62 61 61 61 61 61 61 62 62 63 63 62 62 62
57 57 58 58 59 60 60 61 61 61 61 62 62 62 63 63 64 64 63 63 63 62 63 63 62 62 62 62 61 61 61 62 62 63 63 62 62 62
58 58 58 58 58 59 60 60 60 60 61 61 62 63 63 63 64 64 64 64 63 62 63 63 63 63 62 62 62 62 62 62 62 62 63 63 62 62
58 58 58 58 58 58 59 59 59 59 60 61 61 61 62 62 62 63 63 63 62 61 61 62 62 62 62 61 61 61 61 62 62 61 62 63 62 62
57 57 57 58 58 58 58 57 57 58 59 59 59 60 60 60 60 60 61 61 61 61 60 61 61 61 61 60 60 61 61 60 60 60 60 60 60 61
55 56 56 57 57 57 57 57 57 57 58 58 58 58 58 58 58 59 59 60 60 60 60 61 61 61 60 60 60 60 60 60 59 59 58 58 58 59
55 56 56 56 56 57 57 57 57 57 57 57 57 57 57 58 58 58 58 58 59 59 59 59 60 60 60 59 58 58 58 58 58 58 58 57 57 58
55 55 55 55 56 56 56 56 56 57 57 56 56 57 57 57 57 57 57 57 57 57 58 59 59 59 59 59 58 57 57 57 57 57 58 57 56 57
54 54 54 55 55 56 56 56 56 56 57 57 57 56 56 56 56 56 55 55 56 56 56 56 57 58 58 58 57 57 57 57 56 56 57 56 56 56
53 53 54 53 54 55 55 55 55 55 55 55 55 55 55 54 54 54 54 54 54 54 54 54 55 55 56 56 56 56 57 57 56 56 56 56 56 56
51 52 52 52 53 53 53 53 53 53 53 53 53 53 53 52 52 52 53 53 52 52 52 52 53 53 53 53 53 55 55 55 55 56 56 56 55 55
49 50 50 51 51 51 51 51 51 51 51 51 50 50 50 50 50 50 50 51 50 50 50 50 50 51 51 51 51 52 53 53 54 54 54 54 54 53
48 48 48 48 48 48 49 49 49 48 48 48 48 48 48 48 48 48 48 49 49 49 49 49 49 50 50 50 50 50 51 51 51 52 53 53 52 51
47 47 47 47 47 47 47 47 46 46 45 46 46 46 46 46 46 46 47 47 47 47 47 48 48 49 49 48 48 48 48 49 49 50 51 51 51 50
44 45 45 46 46 45 45 44 44 44 44 44 45 45 45 45 45 45 45 46 46 46 46 47 47 47 47 46 46 46 46 46 47 47 48 49 48 48
Wind_Direction
261 262 263 263 263 262 262 261 261 259 259 259 259 260 260 260 261 262 263 262 261 261 261 260 260 259 258 258 258 258 258 258 258 259 260 261 262 263
261 261 261 261 262 262 261 261 261 261 260 259 260 260 260 260 260 261 262 262 261 261 261 261 260 260 259 258 258 257 257 257 257 258 260 261 261 262
261 262 261 261 261 261 261 262 262 262 262 261 260 260 260 260 260 261 262 261 261 261 261 261 261 260 259 259 258 257 256 256 256 257 258 260 260 261
261 260 260 260 261 261 261 261 262 263 262 262 261 260 261 262 261 262 262 262 261 261 261 261 260 260 260 259 259 258 257 256 257 257 258 258 259 261
260 260 260 260 261 261 261 262 262 262 262 262 261 261 261 261 261 262 263 262 261 262 261 260 260 260 261 260 259 257 257 256 257 257 257 258 259 260
260 260 261 261 262 262 262 262 262 262 262 262 262 261 261 261 262 263 263 262 262 262 262 261 261 261 261 261 259 258 257 257 256 257 258 259 259 259
261 262 262 262 263 263 263 263 263 263 262 262 262 262 262 262 262 263 264 264 263 262 262 261 261 261 260 259 259 259 258 257 257 258 259 259 260 259
262 262 263 263 263 264 265 265 265 265 264 263 263 263 263 263 262 263 264 265 264 263 262 261 261 260 259 258 259 258 258 258 258 258 258 258 259 260
262 263 263 263 264 265 265 265 265 265 264 263 263 263 263 263 263 263 264 265 264 263 262 261 260 260 260 260 259 259 258 257 257 258 258 259 259 260
263 263 263 263 264 265 266 266 265 264 264 263 263 263 263 263 263 264 263 264 264 264 263 262 260 260 260 259 259 259 258 257 258 258 258 259 259 259
263 263 264 264 265 266 266 266 265 265 264 264 264 264 264 264 263 264 264 263 263 264 263 262 260 259 259 259 259 259 259 259 259 258 258 259 259 259
263 264 265 265 265 265 265 266 266 265 265 264 263 264 264 263 263 264 264 263 263 263 262 261 260 259 258 259 259 259 259 259 259 259 258 258 258 259
264 264 265 265 265 266 266 266 266 265 265 264 264 264 264 263 263 263 263 263 263 262 261 261 260 259 259 258 258 258 258 258 258 259 259 258 258 258
264 265 265 265 265 265 266 266 265 265 264 264 264 264 264 262 261 262 262 262 262 263 262 261 260 259 259 258 258 257 257 257 257 258 259 258 258 257
265 265 265 264 265 265 265 266 266 266 265 264 264 264 263 261 261 261 261 261 261 262 262 261 260 259 258 258 257 257 257 256 257 257 257 257 258 258
265 265 265 265 265 265 265 265 265 265 264 264 263 263 262 262 261 261 261 261 260 260 261 261 260 259 258 257 257 257 257 256 256 256 257 257 258 259
265 265 265 265 265 264 264 265 265 265 264 263 261 260 260 261 260 260 260 260 260 261 260 259 259 259 258 257 257 257 256 256 256 256 256 257 257 259
265 265 265 265 265 265 265 265 264 264 263 262 260 260 260 260 260 260 260 260 260 260 259 259 258 257 257 257 257 257 257 257 257 257 257 257 257 258
266 265 265 265 266 265 265 264 263 262 262 261 260 259 259 259 259 259 259 259 259 259 259 259 258 258 256 256 256 257 258 258 258 258 258 259 259 259
267 266 266 266 265 265 264 264 263 262 260 259 258 259 259 260 260 259 259 258 258 258 258 258 258 258 257 256 256 256 257 259 259 259 259 259 260 259
266 266 265 265 265 265 265 264 263 261 260 259 259 259 260 261 261 260 260 259 259 259 258 258 258 258 258 257 256 256 257 258 259 259 259 259 259 259
266 265 264 264 264 264 264 263 261 261 260 259 259 260 261 261 262 262 261 261 260 260 258 258 258 258 258 257 256 257 257 258 259 259 258 258 258 258
265 264 264 264 264 264 263 262 261 261 260 259 259 260 260 261 261 262 262 261 260 259 258 257 256 257 258 257 256 256 257 258 259 259 259 258 258 257
Height
5640 5642 5643 5643 5644 5645 5646 5648 5651 5654 5657 5658 5658 5659 5659 5661 5662 5663 5664 5666 5668 5669 5671 5673 5675 5676 5678 5680 5682 5684 5687 5689 5691 5693 5695 5697 5699 5700
5625 5626 5627 5628 5629 5630 5631 5633 5634 5637 5640 5643 5643 5643 5644 5645 5646 5647 5648 5650 5652 5654 5655 5657 5659 5660 5662 5664 5667 5669 5671 5674 5676 5678 5680 5682 5684 5686
5609 5610 5611 5613 5614 5615 5616 5617 5618 5620 5623 5626 5626 5627 5627 5629 5630 5631 5632 5634 5635 5637 5639 5640 5642 5644 5646 5648 5650 5653 5655 5658 5660 5663 5665 5667 5669 5671
5593 5595 5596 5597 5598 5599 5601 5602 5603 5604 5606 5609 5610 5611 5611 5612 5613 5615 5616 5617 5619 5621 5622 5623 5625 5627 5629 5631 5634 5636 5638 5641 5643 5646 5649 5652 5653 5654
5577 5579 5580 5581 5582 5584 5585 5586 5586 5587 5589 5591 5593 5594 5595 5596 5597 5598 5599 5600 5602 5603 5605 5606 5608 5610 5611 5613 5616 5618 5621 5624 5627 5629 5631 5634 5636 5637
5562 5563 5564 5565 5566 5567 5568 5568 5569 5570 5572 5573 5575 5577 5578 5579 5579 5581 5583 5584 5585 5586 5587 5589 5591 5592 5594 5596 5599 5601 5603 5605 5608 5610 5613 5616 5618 5620
5546 5547 5548 5548 5549 5549 5550 5551 5551 5552 5554 5555 5557 5559 5561 5561 5563 5564 5565 5566 5568 5568 5570 5571 5573 5575 5576 5578 5580 5583 5585 5588 5590 5593 5595 5598 5600 5603
5529 5530 5531 5531 5531 5531 5532 5533 5533 5534 5535 5537 5539 5541 5543 5543 5544 5545 5546 5548 5550 5552 5551 5554 5555 5557 5559 5561 5563 5565 5567 5570 5572 5575 5578 5580 5582 5585
5513 5513 5514 5514 5514 5514 5514 5515 5515 5515 5517 5518 5521 5523 5524 5525 5526 5528 5528 5529 5531 5532 5532 5535 5537 5539 5541 5543 5545 5547 5549 5551 5554 5557 5559 5562 5564 5567
5496 5496 5497 5497 5496 5497 5497 5497 5497 5498 5499 5500 5503 5504 5504 5505 5506 5507 5508 5510 5512 5513 5513 5516 5519 5521 5523 5524 5526 5529 5531 5533 5536 5538 5541 5544 5546 5549
5479 5479 5479 5480 5480 5479 5479 5480 5480 5481 5480 5482 5483 5484 5485 5486 5487 5487 5489 5490 5493 5496 5495 5496 5500 5502 5504 5507 5508 5510 5512 5514 5517 5520 5522 5525 5528 5531
5462 5462 5462 5462 5462 5461 5461 5462 5463 5463 5463 5464 5465 5466 5467 5468 5468 5469 5470 5471 5473 5477 5478 5478 5480 5482 5486 5489 5490 5492 5494 5496 5498 5501 5504 5507 5510 5513
5445 5445 5445 5445 5444 5444 5444 5445 5445 5445 5445 5446 5448 5449 5449 5450 5451 5451 5452 5453 5455 5458 5460 5460 5462 5463 5466 5471 5473 5474 5476 5478 5481 5483 5486 5489 5492 5495
5428 5428 5428 5428 5427 5427 5427 5428 5428 5428 5428 5429 5431 5432 5432 5433 5434 5434 5435 5435 5437 5439 5441 5442 5444 5446 5448 5451 5455 5457 5459 5461 5464 5467 5469 5472 5475 5477
5410 5410 5411 5410 5410 5410 5410 5410 5410 5411 5411 5412 5413 5414 5415 5416 5416 5417 5418 5418 5420 5421 5423 5424 5426 5428 5430 5433 5437 5440 5442 5445 5447 5450 5453 5455 5458 5460
5392 5393 5393 5393 5393 5393 5393 5393 5393 5394 5394 5395 5396 5396 5397 5398 5399 5400 5401 5402 5403 5405 5406 5407 5408 5410 5413 5416 5419 5422 5425 5428 5431 5433 5436 5439 5441 5443
5375 5376 5376 5376 5376 5376 5376 5376 5375 5376 5376 5377 5378 5380 5380 5381 5382 5382 5383 5384 5386 5388 5389 5390 5391 5393 5395 5398 5401 5405 5408 5411 5414 5417 5419 5422 5424 5427
5358 5359 5359 5359 5358 5358 5358 5358 5358 5358 5359 5360 5361 5362 5363 5364 5365 5366 5367 5368 5370 5371 5373 5374 5375 5377 5379 5382 5385 5388 5391 5394 5397 5400 5402 5405 5409 5410
5341 5341 5342 5342 5341 5341 5341 5342 5342 5342 5342 5343 5344 5345 5346 5348 5349 5350 5351 5352 5354 5355 5357 5358 5359 5361 5364 5367 5370 5371 5374 5377 5380 5382 5385 5388 5392 5395
5324 5324 5325 5325 5325 5325 5325 5325 5325 5326 5327 5327 5329 5330 5331 5332 5333 5334 5335 5337 5338 5340 5341 5343 5344 5346 5349 5352 5354 5357 5358 5360 5363 5366 5369 5372 5375 5377
5309 5309 5309 5309 5309 5308 5309 5309 5309 5310 5311 5312 5314 5315 5316 5317 5318 5319 5320 5321 5322 5324 5326 5328 5330 5331 5333 5335 5338 5341 5343 5345 5347 5350 5353 5356 5359 5361
5294 5293 5293 5294 5293 5293 5293 5294 5294 5295 5296 5298 5299 5300 5301 5302 5303 5304 5305 5306 5308 5309 5311 5313 5314 5316 5318 5321 5324 5326 5329 5330 5332 5334 5337 5340 5343 5347
5279 5278 5279 5279 5278 5278 5279 5279 5280 5281 5282 5283 5285 5286 5287 5288 5289 5290 5291 5292 5293 5295 5296 5298 5300 5301 5304 5306 5309 5311 5314 5316 5318 5320 5323 5325 5328 5332